Time,TemperatureF,DewpointF,PressureIn,WindDirection,WindDirectionDegrees,WindSpeedMPH,WindSpeedGustMPH,Humidity,HourlyPrecipIn,Conditions,Clouds,dailyrainin,SolarRadiationWatts/m^2,SoftwareType,DateUTC
2013-08-27 00:05:00,80.0,67.0,-100.00,SSE,154,8.0,13.0,65,0.00,,,0.00,0.000000,,2013-08-27 05:05:00,
2013-08-27 00:43:00,78.0,67.0,-100.00,SSE,148,4.0,12.0,69,0.00,,,0.00,0.000000,,2013-08-27 05:43:00,
2013-08-27 00:52:00,78.0,67.0,-100.00,SSE,148,4.0,12.0,69,0.00,,,0.00,0.000000,,2013-08-27 05:52:00,
2013-08-27 01:02:00,78.0,67.0,-100.00,SSE,148,4.0,12.0,69,0.00,,,0.00,0.000000,,2013-08-27 06:02:00,
2013-08-27 01:42:00,76.0,67.0,-100.00,SSE,149,4.0,8.0,74,0.00,,,0.00,0.000000,,2013-08-27 06:42:00,
2013-08-27 01:52:00,76.0,67.0,-100.00,SSE,149,4.0,8.0,74,0.00,,,0.00,0.000000,,2013-08-27 06:52:00,
2013-08-27 02:02:00,76.0,67.0,-100.00,SSE,149,4.0,8.0,74,0.00,,,0.00,0.000000,,2013-08-27 07:02:00,
2013-08-27 02:42:00,75.0,69.0,-100.00,SE,143,3.0,9.0,81,0.00,,,-99.99,0.000000,,2013-08-27 07:42:00,
2013-08-27 02:52:00,75.0,69.0,-100.00,SE,143,3.0,9.0,81,0.00,,,-99.99,0.000000,,2013-08-27 07:52:00,
2013-08-27 03:02:00,75.0,69.0,-100.00,SE,143,3.0,9.0,81,0.00,,,-99.99,0.000000,,2013-08-27 08:02:00,
2013-08-27 03:42:00,75.0,69.0,-100.00,SSE,156,8.0,11.0,83,0.00,,,0.00,0.000000,,2013-08-27 08:42:00,
2013-08-27 03:52:00,75.0,69.0,-100.00,SSE,156,8.0,11.0,83,0.00,,,0.00,0.000000,,2013-08-27 08:52:00,
2013-08-27 04:01:00,75.0,69.0,-100.00,SSE,156,8.0,11.0,83,0.00,,,0.00,0.000000,,2013-08-27 09:01:00,
2013-08-27 04:43:00,74.0,68.0,-100.00,SSE,163,7.0,12.0,82,0.00,,,0.00,0.000000,,2013-08-27 09:43:00,
2013-08-27 04:54:00,74.0,68.0,-100.00,SSE,163,7.0,12.0,82,0.00,,,0.00,0.000000,,2013-08-27 09:54:00,
2013-08-27 05:05:00,74.0,68.0,-100.00,SSE,163,7.0,12.0,82,0.00,,,0.00,0.000000,,2013-08-27 10:05:00,
2013-08-27 05:43:00,73.0,68.0,-100.00,SSE,158,4.0,10.0,84,0.00,,,0.00,0.000000,,2013-08-27 10:43:00,
2013-08-27 05:53:00,73.0,68.0,-100.00,SSE,158,4.0,10.0,84,0.00,,,0.00,0.000000,,2013-08-27 10:53:00,
2013-08-27 06:03:00,73.0,68.0,-100.00,SSE,158,4.0,10.0,84,0.00,,,0.00,0.000000,,2013-08-27 11:03:00,
2013-08-27 06:42:00,73.0,69.0,-100.00,SSE,149,5.0,9.0,86,0.00,,,0.00,0.000000,,2013-08-27 11:42:00,
2013-08-27 06:52:00,73.0,69.0,-100.00,SSE,149,5.0,9.0,86,0.00,,,0.00,0.000000,,2013-08-27 11:52:00,
2013-08-27 07:02:00,73.0,69.0,-100.00,SSE,149,5.0,9.0,86,0.00,,,0.00,0.000000,,2013-08-27 12:02:00,
2013-08-27 07:42:00,73.0,69.0,-100.00,SE,141,5.0,10.0,86,0.00,,,0.00,1.000000,,2013-08-27 12:42:00,
2013-08-27 07:52:00,73.0,69.0,-100.00,SE,141,5.0,10.0,86,0.00,,,0.00,1.000000,,2013-08-27 12:52:00,
2013-08-27 08:01:00,73.0,69.0,-100.00,SE,141,5.0,10.0,86,0.00,,,0.00,1.000000,,2013-08-27 13:01:00,
2013-08-27 08:42:00,75.0,70.0,-100.00,SSE,157,6.0,9.0,85,0.00,,,0.00,37.000000,,2013-08-27 13:42:00,
2013-08-27 08:52:00,75.0,70.0,-100.00,SSE,157,6.0,9.0,85,0.00,,,0.00,37.000000,,2013-08-27 13:52:00,
2013-08-27 09:02:00,75.0,70.0,-100.00,SSE,157,6.0,9.0,85,0.00,,,0.00,37.000000,,2013-08-27 14:02:00,
2013-08-27 09:42:00,80.0,71.0,-100.00,South,178,9.0,14.0,74,0.00,,,0.00,213.000000,,2013-08-27 14:42:00,
2013-08-27 09:53:00,80.0,71.0,-100.00,South,178,9.0,14.0,74,0.00,,,0.00,213.000000,,2013-08-27 14:53:00,
2013-08-27 10:01:00,80.0,71.0,-100.00,South,178,9.0,14.0,74,0.00,,,0.00,213.000000,,2013-08-27 15:01:00,
2013-08-27 10:07:00,82.0,71.0,-100.00,South,172,8.0,13.0,70,0.00,,,0.00,366.000000,,2013-08-27 15:07:00,
2013-08-27 10:45:00,82.0,71.0,-100.00,South,172,8.0,13.0,70,0.00,,,0.00,366.000000,,2013-08-27 15:45:00,
2013-08-27 10:58:00,82.0,71.0,-100.00,South,172,8.0,13.0,70,0.00,,,0.00,366.000000,,2013-08-27 15:58:00,
2013-08-27 11:46:00,86.0,69.0,-100.00,SSE,168,7.0,14.0,57,0.00,,,0.00,627.000000,,2013-08-27 16:46:00,
2013-08-27 11:55:00,86.0,69.0,-100.00,SSE,168,7.0,14.0,57,0.00,,,0.00,627.000000,,2013-08-27 16:55:00,
2013-08-27 12:04:00,86.0,69.0,-100.00,SSE,168,7.0,14.0,57,0.00,,,0.00,627.000000,,2013-08-27 17:04:00,
2013-08-27 12:43:00,91.0,69.0,-100.00,South,174,9.0,16.0,48,0.00,,,0.00,701.000000,,2013-08-27 17:43:00,
2013-08-27 12:52:00,91.0,69.0,-100.00,South,174,9.0,16.0,48,0.00,,,0.00,701.000000,,2013-08-27 17:52:00,
2013-08-27 13:02:00,91.0,69.0,-100.00,South,174,9.0,16.0,48,0.00,,,0.00,701.000000,,2013-08-27 18:02:00,
2013-08-27 13:42:00,91.0,65.0,-100.00,SSW,193,8.0,17.0,42,0.00,,,0.00,666.000000,,2013-08-27 18:42:00,
2013-08-27 13:53:00,91.0,65.0,-100.00,SSW,193,8.0,17.0,42,0.00,,,0.00,666.000000,,2013-08-27 18:53:00,
2013-08-27 14:01:00,91.0,65.0,-100.00,SSW,193,8.0,17.0,42,0.00,,,0.00,666.000000,,2013-08-27 19:01:00,
2013-08-27 14:42:00,92.0,62.0,-100.00,SSW,194,9.0,19.0,37,0.00,,,0.00,955.000000,,2013-08-27 19:42:00,
2013-08-27 14:52:00,92.0,62.0,-100.00,SSW,194,9.0,19.0,37,0.00,,,0.00,955.000000,,2013-08-27 19:52:00,
2013-08-27 15:02:00,92.0,62.0,-100.00,SSW,194,9.0,19.0,37,0.00,,,0.00,955.000000,,2013-08-27 20:02:00,